Regional Weather Roundup
Issued by NWS

Home | Current Version | Previous Version | Graphics & Text | Print | Product List | Glossary On
Versions: 1 2 3 4 5 6 7 8 9 10 11 12 13 14 15 16 17 18 19 20 21 22 23 24 25 26 27 28 29 30 31 32 33 34 35 36 37 38 39 40 41 42 43 44 45 46 47 48 49 50
003
ASUS43 KLMK 231302
RWRKY
KENTUCKY REGIONAL WEATHER ROUNDUP
NATIONAL WEATHER SERVICE LOUISVILLE KY
900 AM EDT TUE MAY 23 2017

NOTE "FAIR" INDICATES FEW OR NO CLOUDS BELOW 12,000 FEET
WITH NO SIGNIFICANT WEATHER AND/OR OBSTRUCTIONS TO VISIBILITY.

KYZ001>023-026-027-061>063-070>075-231400-
WESTERN AND SOUTH CENTRAL KENTUCKY

CITY           SKY/WX    TMP DP  RH WIND       PRES   REMARKS
PADUCAH        CLOUDY    64  56  75 CALM      29.81S
HENDERSON      SUNNY     62  55  77 E3        29.83F
OWENSBORO      PTSUNNY   65  53  65 CALM      29.84S
HOPKINSVILLE   CLOUDY    64  55  72 CALM      29.80F
BOWLING GREEN  PTSUNNY   62  56  80 E6        29.81F
GLASGOW        NOT AVBL
$$

KYZ024-025-028>034-038-045-046-053-231400-
NORTH CENTRAL KENTUCKY

CITY           SKY/WX    TMP DP  RH WIND       PRES   REMARKS
LOUISVILLE/SDF PTSUNNY   63  53  70 E6        29.82F
LOUISVILLE/LOU SUNNY     63  53  70 E5        29.84F
FORT KNOX      MOSUNNY   59  52  77 NE6       29.81S
$$

KYZ035>037-039>044-047>052-055>060-089>105-231400-
NORTHEAST KENTUCKY

CITY           SKY/WX    TMP DP  RH WIND       PRES   REMARKS
LEXINGTON      CLOUDY    62  52  69 E8        29.86R
COVINGTON      CLOUDY    60  51  72 E7        29.86F
FRANKFORT      CLOUDY    61  52  72 E8        29.84S
$$

KYZ054-064>069-076>088-106>120-231400-
SOUTHEAST KENTUCKY

CITY           SKY/WX    TMP DP  RH WIND       PRES   REMARKS
JACKSON        CLOUDY    58  53  84 CALM      29.85F
LONDON         CLOUDY    59  53  80 CALM      29.85S
SOMERSET       CLOUDY    59  52  77 CALM      29.86S
MIDDLESBORO    CLOUDY    60  58  95 CALM      29.86S
MONTICELLO     CLOUDY    60  56  86 N12       29.85F
$$





USA.gov is the U.S. government's official web portal to all federal, state and local government web resources and services.